Time,TemperatureF,DewpointF,PressureIn,WindDirection,WindDirectionDegrees,WindSpeedMPH,WindSpeedGustMPH,Humidity,HourlyPrecipIn,Conditions,Clouds,dailyrainin,SolarRadiationWatts/m^2,SoftwareType,DateUTC
2013-03-24 00:02:00,41.0,7.0,-100.00,West,279,14.0,22.0,24,0.00,,,0.00,0.000000,,2013-03-24 07:02:00,
2013-03-24 00:11:00,41.0,7.0,-100.00,West,279,14.0,22.0,24,0.00,,,0.00,0.000000,,2013-03-24 07:11:00,
2013-03-24 00:22:00,41.0,7.0,-100.00,West,279,14.0,22.0,24,0.00,,,0.00,0.000000,,2013-03-24 07:22:00,
2013-03-24 00:52:00,40.0,10.0,-100.00,WNW,294,14.0,21.0,29,0.00,,,0.00,0.000000,,2013-03-24 07:52:00,
2013-03-24 01:02:00,40.0,10.0,-100.00,WNW,294,14.0,21.0,29,0.00,,,0.00,0.000000,,2013-03-24 08:02:00,
2013-03-24 01:12:00,40.0,10.0,-100.00,WNW,294,14.0,21.0,29,0.00,,,0.00,0.000000,,2013-03-24 08:12:00,
2013-03-24 01:22:00,40.0,10.0,-100.00,WNW,294,14.0,21.0,29,0.00,,,0.00,0.000000,,2013-03-24 08:22:00,
2013-03-24 01:52:00,40.0,11.0,-100.00,NW,308,17.0,25.0,30,0.00,,,0.00,0.000000,,2013-03-24 08:52:00,
2013-03-24 02:02:00,40.0,11.0,-100.00,NW,308,17.0,25.0,30,0.00,,,0.00,0.000000,,2013-03-24 09:02:00,
2013-03-24 02:12:00,40.0,11.0,-100.00,NW,308,17.0,25.0,30,0.00,,,0.00,0.000000,,2013-03-24 09:12:00,
2013-03-24 02:21:00,40.0,11.0,-100.00,NW,308,17.0,25.0,30,0.00,,,0.00,0.000000,,2013-03-24 09:21:00,
2013-03-24 02:52:00,39.0,12.0,-100.00,NNW,329,19.0,24.0,32,0.00,,,0.00,0.000000,,2013-03-24 09:52:00,
2013-03-24 03:02:00,39.0,12.0,-100.00,NNW,329,19.0,24.0,32,0.00,,,0.00,0.000000,,2013-03-24 10:02:00,
2013-03-24 03:12:00,39.0,12.0,-100.00,NNW,329,19.0,24.0,32,0.00,,,0.00,0.000000,,2013-03-24 10:12:00,
2013-03-24 03:22:00,39.0,12.0,-100.00,NNW,329,19.0,24.0,32,0.00,,,0.00,0.000000,,2013-03-24 10:22:00,
2013-03-24 03:52:00,40.0,12.0,-100.00,NNW,332,19.0,23.0,31,0.00,,,0.00,0.000000,,2013-03-24 10:52:00,
2013-03-24 04:02:00,40.0,12.0,-100.00,NNW,332,19.0,23.0,31,0.00,,,0.00,0.000000,,2013-03-24 11:02:00,
2013-03-24 04:12:00,40.0,12.0,-100.00,NNW,332,19.0,23.0,31,0.00,,,0.00,0.000000,,2013-03-24 11:12:00,
2013-03-24 04:22:00,40.0,12.0,-100.00,NNW,332,19.0,23.0,31,0.00,,,0.00,0.000000,,2013-03-24 11:22:00,
2013-03-24 04:52:00,41.0,13.0,-100.00,NNW,329,13.0,23.0,32,0.00,,,0.00,0.000000,,2013-03-24 11:52:00,
2013-03-24 05:02:00,41.0,13.0,-100.00,NNW,329,13.0,23.0,32,0.00,,,0.00,0.000000,,2013-03-24 12:02:00,
2013-03-24 05:12:00,41.0,13.0,-100.00,NNW,329,13.0,23.0,32,0.00,,,0.00,0.000000,,2013-03-24 12:12:00,
2013-03-24 05:22:00,41.0,13.0,-100.00,NNW,329,13.0,23.0,32,0.00,,,0.00,0.000000,,2013-03-24 12:22:00,
2013-03-24 05:52:00,39.0,14.0,-100.00,NNW,328,13.0,17.0,36,0.00,,,0.00,0.000000,,2013-03-24 12:52:00,
2013-03-24 06:02:00,39.0,14.0,-100.00,NNW,328,13.0,17.0,36,0.00,,,0.00,0.000000,,2013-03-24 13:02:00,
2013-03-24 06:12:00,39.0,14.0,-100.00,NNW,328,13.0,17.0,36,0.00,,,0.00,0.000000,,2013-03-24 13:12:00,
2013-03-24 06:22:00,39.0,14.0,-100.00,NNW,328,13.0,17.0,36,0.00,,,0.00,0.000000,,2013-03-24 13:22:00,
2013-03-24 06:52:00,40.0,18.0,-100.00,North,349,9.0,14.0,40,0.00,,,0.00,0.000000,,2013-03-24 13:52:00,
2013-03-24 07:02:00,40.0,18.0,-100.00,North,349,9.0,14.0,40,0.00,,,0.00,0.000000,,2013-03-24 14:02:00,
2013-03-24 07:12:00,40.0,18.0,-100.00,North,349,9.0,14.0,40,0.00,,,0.00,0.000000,,2013-03-24 14:12:00,
2013-03-24 07:22:00,40.0,18.0,-100.00,North,349,9.0,14.0,40,0.00,,,0.00,0.000000,,2013-03-24 14:22:00,
2013-03-24 07:52:00,42.0,8.0,-100.00,ESE,112,5.0,8.0,24,0.00,,,0.00,15.000000,,2013-03-24 14:52:00,
2013-03-24 08:02:00,42.0,8.0,-100.00,ESE,112,5.0,8.0,24,0.00,,,0.00,15.000000,,2013-03-24 15:02:00,
2013-03-24 08:12:00,42.0,8.0,-100.00,ESE,112,5.0,8.0,24,0.00,,,0.00,15.000000,,2013-03-24 15:12:00,
2013-03-24 08:22:00,42.0,8.0,-100.00,ESE,112,5.0,8.0,24,0.00,,,0.00,15.000000,,2013-03-24 15:22:00,
2013-03-24 08:53:00,49.0,9.0,-100.00,South,175,6.0,10.0,19,0.00,,,0.00,65.000000,,2013-03-24 15:53:00,
2013-03-24 09:52:00,49.0,0.0,-100.00,East,94,6.0,11.0,13,0.00,,,0.00,477.000000,,2013-03-24 16:52:00,
2013-03-24 10:02:00,49.0,0.0,-100.00,East,94,6.0,11.0,13,0.00,,,0.00,477.000000,,2013-03-24 17:02:00,
2013-03-24 10:12:00,49.0,0.0,-100.00,East,94,6.0,11.0,13,0.00,,,0.00,477.000000,,2013-03-24 17:12:00,
2013-03-24 10:22:00,49.0,0.0,-100.00,East,94,6.0,11.0,13,0.00,,,0.00,477.000000,,2013-03-24 17:22:00,
2013-03-24 10:53:00,51.0,-2.0,-100.00,ESE,110,6.0,11.0,11,0.00,,,0.00,731.000000,,2013-03-24 17:53:00,
2013-03-24 11:02:00,51.0,-2.0,-100.00,ESE,110,6.0,11.0,11,0.00,,,0.00,731.000000,,2013-03-24 18:02:00,
2013-03-24 11:12:00,51.0,-2.0,-100.00,ESE,110,6.0,11.0,11,0.00,,,0.00,731.000000,,2013-03-24 18:12:00,
2013-03-24 11:22:00,51.0,-2.0,-100.00,ESE,110,6.0,11.0,11,0.00,,,0.00,731.000000,,2013-03-24 18:22:00,
2013-03-24 11:52:00,53.0,-2.0,-100.00,East,93,7.0,14.0,10,0.00,,,0.00,990.000000,,2013-03-24 18:52:00,
2013-03-24 12:02:00,53.0,-2.0,-100.00,East,93,7.0,14.0,10,0.00,,,0.00,990.000000,,2013-03-24 19:02:00,
2013-03-24 12:12:00,53.0,-2.0,-100.00,East,93,7.0,14.0,10,0.00,,,0.00,990.000000,,2013-03-24 19:12:00,
2013-03-24 12:22:00,53.0,-2.0,-100.00,East,93,7.0,14.0,10,0.00,,,0.00,990.000000,,2013-03-24 19:22:00,
2013-03-24 12:53:00,55.0,-1.0,-100.00,East,90,6.0,15.0,10,0.00,,,0.00,1122.000000,,2013-03-24 19:53:00,
2013-03-24 13:02:00,55.0,-1.0,-100.00,East,90,6.0,15.0,10,0.00,,,0.00,1122.000000,,2013-03-24 20:02:00,
2013-03-24 13:12:00,55.0,-1.0,-100.00,East,90,6.0,15.0,10,0.00,,,0.00,1122.000000,,2013-03-24 20:12:00,
2013-03-24 13:22:00,55.0,-1.0,-100.00,East,90,6.0,15.0,10,0.00,,,0.00,1122.000000,,2013-03-24 20:22:00,
2013-03-24 13:53:00,55.0,-1.0,-100.00,SE,132,8.0,14.0,10,0.00,,,0.00,1172.000000,,2013-03-24 20:53:00,
2013-03-24 14:02:00,55.0,-1.0,-100.00,SE,132,8.0,14.0,10,0.00,,,0.00,1172.000000,,2013-03-24 21:02:00,
2013-03-24 14:11:00,55.0,-1.0,-100.00,SE,132,8.0,14.0,10,0.00,,,0.00,1172.000000,,2013-03-24 21:11:00,
2013-03-24 14:22:00,55.0,-1.0,-100.00,SE,132,8.0,14.0,10,0.00,,,0.00,1172.000000,,2013-03-24 21:22:00,
2013-03-24 14:53:00,60.0,1.0,-100.00,SSE,166,9.0,17.0,9,0.00,,,0.00,1141.000000,,2013-03-24 21:53:00,
2013-03-24 15:02:00,60.0,1.0,-100.00,SSE,166,9.0,17.0,9,0.00,,,0.00,1141.000000,,2013-03-24 22:02:00,
2013-03-24 15:52:00,62.0,3.0,-100.00,WSW,237,4.0,13.0,9,-99.99,,,0.00,1018.000000,,2013-03-24 22:52:00,
2013-03-24 16:02:00,62.0,3.0,-100.00,WSW,237,4.0,13.0,9,-99.99,,,0.00,1018.000000,,2013-03-24 23:02:00,
2013-03-24 16:12:00,62.0,3.0,-100.00,WSW,237,4.0,13.0,9,-99.99,,,0.00,1018.000000,,2013-03-24 23:12:00,
2013-03-24 16:22:00,62.0,3.0,-100.00,WSW,237,4.0,13.0,9,-99.99,,,0.00,1018.000000,,2013-03-24 23:22:00,
2013-03-24 16:52:00,58.0,6.0,-100.00,ESE,104,6.0,16.0,12,-99.99,,,0.00,819.000000,,2013-03-24 23:52:00,
2013-03-24 17:02:00,58.0,6.0,-100.00,ESE,104,6.0,16.0,12,-99.99,,,0.00,819.000000,,2013-03-25 00:02:00,
2013-03-24 17:12:00,58.0,6.0,-100.00,ESE,104,6.0,16.0,12,-99.99,,,0.00,819.000000,,2013-03-25 00:12:00,
2013-03-24 17:22:00,58.0,6.0,-100.00,ESE,104,6.0,16.0,12,-99.99,,,0.00,819.000000,,2013-03-25 00:22:00,
2013-03-24 17:52:00,60.0,18.0,-100.00,NE,48,3.0,12.0,19,0.00,,,0.00,565.000000,,2013-03-25 00:52:00,
2013-03-24 18:02:00,60.0,18.0,-100.00,NE,48,3.0,12.0,19,0.00,,,0.00,565.000000,,2013-03-25 01:02:00,
2013-03-24 18:52:00,54.0,24.0,-100.00,NNW,328,13.0,19.0,31,-99.99,,,0.00,276.000000,,2013-03-25 01:52:00,
2013-03-24 19:02:00,54.0,24.0,-100.00,NNW,328,13.0,19.0,31,-99.99,,,0.00,276.000000,,2013-03-25 02:02:00,
2013-03-24 19:11:00,54.0,24.0,-100.00,NNW,328,13.0,19.0,31,-99.99,,,0.00,276.000000,,2013-03-25 02:11:00,
2013-03-24 19:22:00,54.0,24.0,-100.00,NNW,328,13.0,19.0,31,-99.99,,,0.00,276.000000,,2013-03-25 02:22:00,
2013-03-24 19:52:00,49.0,25.0,-100.00,NW,320,9.0,15.0,38,0.00,,,0.00,18.000000,,2013-03-25 02:52:00,
2013-03-24 20:02:00,49.0,25.0,-100.00,NW,320,9.0,15.0,38,0.00,,,0.00,18.000000,,2013-03-25 03:02:00,
2013-03-24 20:12:00,49.0,25.0,-100.00,NW,320,9.0,15.0,38,0.00,,,0.00,18.000000,,2013-03-25 03:12:00,
2013-03-24 20:22:00,49.0,25.0,-100.00,NW,320,9.0,15.0,38,0.00,,,0.00,18.000000,,2013-03-25 03:22:00,
2013-03-24 20:53:00,45.0,24.0,-100.00,WNW,282,18.0,25.0,43,0.00,,,0.00,0.000000,,2013-03-25 03:53:00,
2013-03-24 21:02:00,45.0,24.0,-100.00,WNW,282,18.0,25.0,43,0.00,,,0.00,0.000000,,2013-03-25 04:02:00,
2013-03-24 21:12:00,45.0,24.0,-100.00,WNW,282,18.0,25.0,43,0.00,,,0.00,0.000000,,2013-03-25 04:12:00,
2013-03-24 21:22:00,45.0,24.0,-100.00,WNW,282,18.0,25.0,43,0.00,,,0.00,0.000000,,2013-03-25 04:22:00,
2013-03-24 21:52:00,46.0,24.0,-100.00,WNW,289,14.0,22.0,42,0.00,,,0.00,0.000000,,2013-03-25 04:52:00,
2013-03-24 22:02:00,46.0,24.0,-100.00,WNW,289,14.0,22.0,42,0.00,,,0.00,0.000000,,2013-03-25 05:02:00,
2013-03-24 22:12:00,46.0,24.0,-100.00,WNW,289,14.0,22.0,42,0.00,,,0.00,0.000000,,2013-03-25 05:12:00,
2013-03-24 22:22:00,46.0,24.0,-100.00,WNW,289,14.0,22.0,42,0.00,,,0.00,0.000000,,2013-03-25 05:22:00,
2013-03-24 22:52:00,45.0,23.0,-100.00,NW,310,12.0,18.0,42,0.00,,,0.00,0.000000,,2013-03-25 05:52:00,
2013-03-24 23:02:00,45.0,23.0,-100.00,NW,310,12.0,18.0,42,0.00,,,0.00,0.000000,,2013-03-25 06:02:00,
2013-03-24 23:12:00,45.0,23.0,-100.00,NW,310,12.0,18.0,42,0.00,,,0.00,0.000000,,2013-03-25 06:12:00,
2013-03-24 23:22:00,45.0,23.0,-100.00,NW,310,12.0,18.0,42,0.00,,,0.00,0.000000,,2013-03-25 06:22:00,
2013-03-24 23:52:00,45.0,21.0,-100.00,NW,310,13.0,17.0,38,0.00,,,0.00,0.000000,,2013-03-25 06:52:00,